GFSNW_prec_precacc24_192.txt.gz
Total_Precipitation_Accumulation
0.02 0.00 0.00 0.01 0.01 0.01 0.03 0.16 0.08 0.05 0.31 0.24 0.09 0.04 0.00 0.00 0.00 0.00 0.00 0.01 0.01 0.00 0.01 0.02 0.05 0.07 0.07 0.05 0.05 0.04 0.08 0.22 0.12 0.00 0.00 0.00 0.01 0.11 0.34 0.52 0.51 0.30 0.17 0.02
0.03 0.01 0.00 0.00 0.00 0.01 0.11 0.13 0.03 0.07 0.41 0.32 0.15 0.02 0.00 0.00 0.00 0.00 0.00 0.01 0.00 0.00 0.00 0.03 0.03 0.04 0.01 0.07 0.20 0.25 0.25 0.57 0.43 0.08 0.02 0.04 0.13 0.24 0.40 0.58 0.52 0.25 0.31 0.06
0.01 0.01 0.00 0.00 0.00 0.00 0.10 0.12 0.03 0.03 0.20 0.32 0.23 0.17 0.08 0.01 0.00 0.00 0.01 0.02 0.02 0.03 0.02 0.02 0.02 0.01 0.00 0.01 0.13 0.15 0.28 0.47 0.39 0.30 0.08 0.05 0.16 0.16 0.16 0.41 0.55 0.22 0.14 0.02
0.03 0.02 0.01 0.01 0.02 0.06 0.09 0.08 0.04 0.02 0.05 0.06 0.24 0.23 0.18 0.09 0.06 0.02 0.05 0.08 0.08 0.07 0.09 0.03 0.03 0.01 0.03 0.03 0.07 0.15 0.22 0.33 0.09 0.05 0.02 0.06 0.13 0.15 0.12 0.29 0.36 0.48 0.13 0.02
0.06 0.06 0.05 0.06 0.05 0.10 0.12 0.04 0.01 0.02 0.02 0.00 0.07 0.17 0.24 0.20 0.19 0.12 0.09 0.13 0.11 0.14 0.18 0.10 0.07 0.08 0.07 0.07 0.10 0.25 0.34 0.43 0.22 0.20 0.01 0.01 0.05 0.09 0.08 0.04 0.04 0.11 0.12 0.09
0.02 0.02 0.04 0.05 0.07 0.09 0.07 0.04 0.03 0.12 0.05 0.01 0.03 0.04 0.08 0.13 0.11 0.10 0.06 0.11 0.14 0.15 0.09 0.07 0.10 0.13 0.13 0.11 0.09 0.14 0.25 0.27 0.29 0.26 0.02 0.06 0.23 0.06 0.01 0.01 0.00 0.01 0.04 0.04
0.00 0.01 0.02 0.04 0.07 0.07 0.05 0.04 0.10 0.17 0.09 0.03 0.02 0.00 0.00 0.01 0.02 0.05 0.03 0.04 0.11 0.07 0.04 0.09 0.07 0.11 0.16 0.24 0.24 0.23 0.26 0.20 0.36 0.33 0.11 0.37 0.11 0.00 0.00 0.00 0.00 0.00 0.00 0.00
0.04 0.03 0.02 0.03 0.07 0.08 0.08 0.06 0.13 0.19 0.12 0.05 0.04 0.03 0.03 0.02 0.01 0.02 0.01 0.01 0.02 0.07 0.17 0.32 0.29 0.17 0.16 0.09 0.11 0.20 0.28 0.34 0.51 0.46 0.33 0.18 0.04 0.00 0.00 0.01 0.01 0.00 0.00 0.01
0.08 0.08 0.08 0.08 0.08 0.08 0.14 0.09 0.16 0.23 0.32 0.15 0.05 0.05 0.05 0.06 0.08 0.07 0.02 0.00 0.01 0.09 0.23 0.28 0.26 0.16 0.14 0.09 0.06 0.06 0.14 0.13 0.29 0.31 0.38 0.21 0.02 0.00 0.00 0.03 0.11 0.02 0.01 0.03
0.09 0.09 0.09 0.13 0.13 0.13 0.15 0.14 0.18 0.31 0.27 0.09 0.13 0.14 0.14 0.09 0.06 0.07 0.05 0.04 0.07 0.12 0.24 0.33 0.22 0.11 0.03 0.03 0.03 0.05 0.18 0.49 0.69 0.54 0.56 0.37 0.07 0.01 0.02 0.09 0.06 0.02 0.06 0.07
0.10 0.09 0.08 0.12 0.18 0.21 0.23 0.13 0.18 0.31 0.26 0.08 0.06 0.08 0.09 0.14 0.23 0.16 0.10 0.13 0.16 0.27 0.25 0.21 0.12 0.11 0.03 0.03 0.00 0.03 0.06 0.09 0.10 0.23 0.44 0.34 0.06 0.03 0.07 0.04 0.04 0.03 0.04 0.04
0.10 0.07 0.07 0.08 0.12 0.24 0.37 0.30 0.15 0.32 0.54 0.19 0.07 0.05 0.02 0.02 0.08 0.27 0.26 0.18 0.16 0.28 0.34 0.26 0.26 0.22 0.14 0.11 0.09 0.03 0.07 0.08 0.06 0.08 0.05 0.01 0.02 0.04 0.06 0.04 0.03 0.02 0.01 0.01
0.09 0.08 0.08 0.10 0.13 0.25 0.37 0.34 0.49 0.75 1.02 0.40 0.05 0.00 0.00 0.00 0.01 0.13 0.44 0.36 0.32 0.24 0.23 0.36 0.35 0.28 0.13 0.16 0.14 0.09 0.06 0.05 0.16 0.16 0.03 0.00 0.00 0.01 0.06 0.08 0.03 0.02 0.01 0.00
0.07 0.05 0.07 0.12 0.18 0.27 0.26 0.22 0.37 0.66 0.90 0.47 0.04 0.01 0.01 0.02 0.01 0.03 0.07 0.18 0.37 0.54 0.57 0.78 0.55 0.32 0.17 0.14 0.08 0.09 0.10 0.13 0.15 0.14 0.07 0.05 0.03 0.01 0.06 0.12 0.04 0.02 0.00 0.00
0.03 0.05 0.07 0.08 0.10 0.20 0.22 0.23 0.25 0.31 0.46 0.35 0.08 0.02 0.01 0.02 0.02 0.03 0.02 0.05 0.13 0.45 0.90 0.82 0.50 0.24 0.21 0.15 0.11 0.06 0.02 0.11 0.19 0.17 0.10 0.08 0.03 0.03 0.05 0.17 0.09 0.02 0.01 0.00
0.05 0.06 0.06 0.06 0.07 0.11 0.19 0.15 0.10 0.12 0.24 0.44 0.10 0.00 0.00 0.01 0.00 0.01 0.02 0.03 0.10 0.42 0.65 0.51 0.29 0.17 0.52 0.54 0.11 0.00 0.00 0.00 0.01 0.02 0.04 0.10 0.19 0.14 0.09 0.14 0.12 0.08 0.02 0.01
0.07 0.07 0.07 0.11 0.09 0.04 0.18 0.20 0.13 0.14 0.36 0.68 0.26 0.03 0.01 0.05 0.05 0.04 0.05 0.06 0.10 0.22 0.28 0.18 0.05 0.06 0.39 0.34 0.07 0.00 0.00 0.00 0.00 0.02 0.10 0.11 0.10 0.10 0.04 0.06 0.09 0.09 0.14 0.07
0.04 0.05 0.06 0.13 0.10 0.06 0.03 0.04 0.05 0.14 0.28 0.40 0.25 0.09 0.09 0.02 0.04 0.08 0.08 0.10 0.19 0.18 0.14 0.06 0.03 0.05 0.17 0.15 0.00 0.00 0.00 0.00 0.00 0.01 0.03 0.03 0.02 0.03 0.04 0.03 0.03 0.02 0.03 0.04
0.04 0.04 0.06 0.08 0.10 0.07 0.04 0.04 0.04 0.08 0.16 0.25 0.13 0.08 0.18 0.11 0.07 0.08 0.05 0.09 0.14 0.12 0.13 0.04 0.07 0.08 0.13 0.02 0.00 0.00 0.00 0.00 0.01 0.02 0.01 0.01 0.01 0.03 0.04 0.04 0.03 0.02 0.00 0.01
0.04 0.03 0.08 0.09 0.04 0.05 0.12 0.11 0.16 0.23 0.21 0.13 0.06 0.05 0.15 0.22 0.17 0.14 0.12 0.11 0.13 0.17 0.07 0.03 0.12 0.03 0.00 0.01 0.01 0.04 0.07 0.07 0.04 0.06 0.01 0.01 0.02 0.02 0.03 0.03 0.02 0.02 0.01 0.01
0.03 0.04 0.09 0.19 0.13 0.16 0.19 0.19 0.16 0.12 0.17 0.08 0.02 0.00 0.04 0.11 0.25 0.31 0.26 0.27 0.20 0.27 0.09 0.15 0.16 0.03 0.02 0.08 0.13 0.16 0.19 0.16 0.11 0.09 0.05 0.04 0.04 0.02 0.01 0.02 0.02 0.03 0.02 0.00
0.01 0.09 0.18 0.16 0.17 0.25 0.20 0.15 0.17 0.26 0.15 0.11 0.11 0.16 0.22 0.18 0.28 0.54 0.53 0.45 0.32 0.20 0.16 0.45 0.18 0.10 0.16 0.12 0.09 0.07 0.07 0.06 0.13 0.18 0.20 0.08 0.06 0.03 0.01 0.01 0.01 0.00 0.02 0.03
0.06 0.19 0.33 0.17 0.20 0.23 0.23 0.13 0.11 0.29 0.31 0.29 0.59 0.89 0.93 0.72 0.70 0.74 0.34 0.34 0.17 0.14 0.25 0.25 0.32 0.18 0.06 0.07 0.08 0.04 0.06 0.14 0.24 0.21 0.13 0.12 0.07 0.06 0.03 0.02 0.00 0.01 0.06 0.07
0.17 0.14 0.20 0.11 0.11 0.04 0.03 0.10 0.27 0.42 0.36 0.21 0.54 1.28 1.10 0.63 0.79 0.48 0.30 0.13 0.15 0.23 0.23 0.44 0.23 0.04 0.01 0.06 0.04 0.06 0.16 0.13 0.14 0.13 0.05 0.03 0.06 0.07 0.08 0.04 0.03 0.08 0.07 0.09
0.17 0.20 0.13 0.03 0.03 0.05 0.11 0.10 0.08 0.07 0.04 0.14 0.63 0.78 0.75 0.70 0.59 0.29 0.29 0.35 0.32 0.35 0.52 0.47 0.11 0.02 0.02 0.02 0.01 0.02 0.15 0.22 0.10 0.09 0.05 0.03 0.01 0.02 0.06 0.04 0.06 0.07 0.05 0.05
0.13 0.08 0.03 0.04 0.04 0.05 0.04 0.02 0.01 0.00 0.01 0.09 0.26 0.55 0.42 0.65 0.35 0.48 0.44 0.35 0.35 0.52 0.34 0.14 0.06 0.01 0.01 0.02 0.09 0.06 0.15 0.18 0.30 0.27 0.17 0.13 0.05 0.01 0.01 0.03 0.03 0.03 0.03 0.02
0.02 0.02 0.02 0.01 0.01 0.01 0.01 0.01 0.01 0.01 0.05 0.10 0.14 0.28 0.25 0.32 0.18 0.17 0.20 0.30 0.34 0.17 0.04 0.02 0.02 0.03 0.01 0.01 0.04 0.03 0.09 0.03 0.02 0.01 0.09 0.18 0.08 0.08 0.14 0.08 0.05 0.04 0.03 0.02

GFSNW_prec_precacc24_198.txt.gz
Total_Precipitation_Accumulation
0.02 0.00 0.00 0.00 0.00 0.01 0.00 0.01 0.02 0.02 0.10 0.06 0.02 0.00 0.00 0.00 0.00 0.00 0.00 0.00 0.00 0.00 0.00 0.00 0.00 0.01 0.02 0.01 0.03 0.03 0.08 0.21 0.12 0.00 0.00 0.00 0.02 0.13 0.42 0.69 0.72 0.43 0.28 0.10
0.03 0.01 0.00 0.00 0.00 0.00 0.01 0.02 0.01 0.02 0.27 0.10 0.04 0.00 0.00 0.00 0.00 0.00 0.00 0.00 0.00 0.00 0.00 0.00 0.00 0.00 0.00 0.00 0.05 0.15 0.21 0.43 0.33 0.06 0.02 0.06 0.18 0.30 0.45 0.64 0.64 0.32 0.46 0.13
0.01 0.01 0.00 0.00 0.00 0.00 0.01 0.04 0.01 0.01 0.12 0.22 0.06 0.04 0.02 0.00 0.00 0.00 0.00 0.00 0.01 0.01 0.00 0.00 0.00 0.00 0.00 0.00 0.02 0.06 0.18 0.28 0.25 0.22 0.07 0.07 0.13 0.13 0.18 0.47 0.62 0.24 0.20 0.03
0.03 0.02 0.01 0.01 0.02 0.02 0.00 0.02 0.02 0.00 0.02 0.07 0.21 0.16 0.07 0.02 0.02 0.02 0.03 0.02 0.03 0.03 0.04 0.01 0.00 0.00 0.00 0.00 0.03 0.10 0.14 0.18 0.05 0.03 0.02 0.06 0.12 0.12 0.10 0.28 0.35 0.50 0.14 0.02
0.06 0.06 0.05 0.05 0.04 0.03 0.00 0.00 0.00 0.00 0.00 0.00 0.02 0.09 0.12 0.14 0.17 0.11 0.10 0.11 0.10 0.10 0.12 0.08 0.05 0.04 0.03 0.02 0.04 0.16 0.25 0.33 0.16 0.10 0.01 0.01 0.05 0.08 0.08 0.04 0.04 0.10 0.11 0.09
0.02 0.03 0.03 0.04 0.04 0.02 0.00 0.00 0.00 0.03 0.01 0.00 0.00 0.01 0.02 0.05 0.04 0.04 0.05 0.07 0.07 0.10 0.08 0.04 0.04 0.03 0.03 0.03 0.04 0.08 0.15 0.22 0.26 0.23 0.04 0.07 0.15 0.02 0.01 0.01 0.00 0.01 0.04 0.04
0.01 0.01 0.01 0.02 0.03 0.01 0.00 0.00 0.02 0.04 0.02 0.00 0.00 0.00 0.00 0.00 0.00 0.00 0.01 0.01 0.04 0.01 0.00 0.02 0.01 0.00 0.01 0.01 0.01 0.04 0.09 0.12 0.23 0.23 0.08 0.26 0.09 0.00 0.00 0.00 0.00 0.00 0.00 0.00
0.04 0.01 0.00 0.01 0.03 0.02 0.00 0.00 0.04 0.07 0.05 0.01 0.00 0.00 0.00 0.00 0.00 0.00 0.00 0.00 0.00 0.00 0.01 0.07 0.12 0.10 0.06 0.02 0.01 0.02 0.03 0.11 0.27 0.28 0.21 0.14 0.04 0.00 0.00 0.01 0.02 0.00 0.00 0.01
0.06 0.05 0.04 0.04 0.03 0.03 0.03 0.01 0.05 0.08 0.09 0.02 0.00 0.00 0.00 0.00 0.00 0.00 0.00 0.00 0.00 0.01 0.06 0.14 0.17 0.13 0.10 0.07 0.03 0.02 0.08 0.08 0.23 0.26 0.35 0.18 0.02 0.00 0.00 0.03 0.15 0.02 0.01 0.03
0.07 0.06 0.06 0.07 0.07 0.07 0.07 0.02 0.04 0.08 0.09 0.02 0.00 0.01 0.00 0.00 0.01 0.01 0.01 0.00 0.00 0.03 0.08 0.13 0.12 0.08 0.02 0.02 0.01 0.01 0.10 0.28 0.52 0.51 0.56 0.38 0.07 0.01 0.01 0.09 0.06 0.02 0.06 0.07
0.07 0.07 0.06 0.08 0.11 0.14 0.13 0.07 0.03 0.08 0.06 0.02 0.00 0.00 0.00 0.01 0.02 0.04 0.06 0.04 0.05 0.08 0.12 0.16 0.11 0.08 0.01 0.01 0.00 0.00 0.02 0.04 0.05 0.15 0.35 0.31 0.06 0.03 0.07 0.05 0.04 0.03 0.04 0.04
0.05 0.05 0.06 0.07 0.10 0.21 0.30 0.21 0.05 0.14 0.25 0.06 0.01 0.00 0.00 0.00 0.01 0.06 0.09 0.07 0.05 0.11 0.17 0.17 0.18 0.19 0.14 0.10 0.06 0.01 0.03 0.05 0.05 0.07 0.03 0.01 0.02 0.04 0.06 0.04 0.03 0.02 0.01 0.01
0.04 0.04 0.05 0.09 0.12 0.23 0.36 0.39 0.37 0.48 0.77 0.34 0.04 0.00 0.00 0.00 0.01 0.05 0.24 0.17 0.20 0.15 0.17 0.34 0.34 0.24 0.12 0.11 0.06 0.04 0.01 0.03 0.09 0.09 0.02 0.00 0.00 0.00 0.01 0.01 0.01 0.02 0.01 0.00
0.02 0.02 0.06 0.12 0.18 0.27 0.24 0.20 0.29 0.43 0.69 0.46 0.04 0.01 0.01 0.02 0.01 0.02 0.06 0.14 0.29 0.47 0.61 0.80 0.53 0.26 0.13 0.09 0.06 0.04 0.01 0.03 0.06 0.05 0.01 0.01 0.00 0.01 0.04 0.09 0.03 0.02 0.00 0.00
0.00 0.02 0.05 0.08 0.09 0.17 0.21 0.26 0.26 0.28 0.38 0.36 0.08 0.02 0.01 0.02 0.02 0.03 0.02 0.05 0.14 0.42 0.91 0.84 0.47 0.21 0.21 0.15 0.11 0.04 0.01 0.02 0.09 0.06 0.01 0.04 0.01 0.01 0.03 0.15 0.09 0.02 0.01 0.00
0.03 0.04 0.05 0.06 0.07 0.08 0.14 0.13 0.08 0.07 0.17 0.41 0.09 0.00 0.00 0.01 0.00 0.01 0.02 0.03 0.10 0.41 0.64 0.50 0.29 0.16 0.50 0.55 0.10 0.00 0.00 0.00 0.00 0.00 0.01 0.07 0.17 0.10 0.06 0.06 0.03 0.01 0.00 0.00
0.05 0.06 0.06 0.11 0.08 0.09 0.13 0.12 0.16 0.09 0.30 0.63 0.24 0.01 0.01 0.05 0.04 0.03 0.04 0.04 0.06 0.19 0.27 0.16 0.04 0.04 0.40 0.38 0.07 0.00 0.00 0.00 0.00 0.00 0.04 0.06 0.07 0.08 0.03 0.03 0.04 0.02 0.08 0.06
0.04 0.05 0.04 0.08 0.05 0.03 0.04 0.02 0.03 0.05 0.22 0.33 0.20 0.01 0.01 0.01 0.02 0.05 0.09 0.11 0.14 0.14 0.09 0.03 0.02 0.03 0.14 0.14 0.00 0.00 0.00 0.00 0.00 0.00 0.03 0.05 0.06 0.05 0.03 0.04 0.05 0.06 0.06 0.04
0.04 0.05 0.03 0.03 0.06 0.10 0.06 0.02 0.03 0.05 0.12 0.15 0.07 0.02 0.03 0.04 0.04 0.06 0.06 0.07 0.07 0.05 0.09 0.02 0.05 0.06 0.12 0.02 0.00 0.00 0.00 0.04 0.10 0.12 0.06 0.04 0.05 0.07 0.06 0.05 0.05 0.04 0.02 0.02
0.05 0.03 0.04 0.03 0.04 0.03 0.07 0.08 0.12 0.20 0.21 0.13 0.04 0.00 0.01 0.09 0.16 0.12 0.07 0.08 0.04 0.07 0.03 0.03 0.11 0.03 0.01 0.03 0.05 0.12 0.21 0.20 0.17 0.24 0.08 0.03 0.06 0.04 0.06 0.07 0.07 0.06 0.03 0.02
0.03 0.04 0.05 0.03 0.06 0.07 0.08 0.11 0.13 0.09 0.13 0.06 0.02 0.01 0.03 0.04 0.17 0.29 0.23 0.19 0.13 0.20 0.05 0.11 0.12 0.09 0.19 0.17 0.20 0.22 0.26 0.23 0.17 0.13 0.07 0.09 0.24 0.21 0.12 0.07 0.07 0.08 0.04 0.02
0.03 0.04 0.06 0.04 0.07 0.14 0.09 0.09 0.09 0.13 0.06 0.06 0.12 0.19 0.28 0.20 0.29 0.55 0.50 0.41 0.28 0.15 0.14 0.39 0.26 0.41 0.21 0.14 0.10 0.08 0.09 0.10 0.16 0.19 0.30 0.23 0.22 0.18 0.14 0.09 0.06 0.03 0.04 0.06
0.01 0.04 0.07 0.09 0.17 0.16 0.13 0.05 0.09 0.26 0.27 0.21 0.51 0.83 0.97 0.74 0.68 0.65 0.26 0.28 0.12 0.16 0.28 0.33 0.60 0.27 0.06 0.07 0.08 0.04 0.07 0.15 0.25 0.22 0.21 0.22 0.16 0.11 0.10 0.06 0.03 0.02 0.07 0.09
0.10 0.02 0.03 0.07 0.08 0.03 0.01 0.05 0.22 0.35 0.27 0.14 0.38 1.05 1.10 0.61 0.84 0.44 0.30 0.12 0.18 0.29 0.41 0.61 0.26 0.04 0.01 0.05 0.04 0.06 0.17 0.13 0.15 0.15 0.10 0.09 0.12 0.11 0.10 0.06 0.05 0.08 0.07 0.10
0.06 0.13 0.06 0.01 0.02 0.03 0.07 0.08 0.07 0.06 0.04 0.12 0.49 0.63 0.75 0.66 0.61 0.31 0.31 0.41 0.47 0.55 0.61 0.44 0.12 0.03 0.02 0.02 0.01 0.02 0.16 0.22 0.10 0.10 0.07 0.08 0.08 0.05 0.08 0.06 0.07 0.07 0.06 0.07
0.04 0.04 0.02 0.03 0.04 0.04 0.04 0.02 0.00 0.00 0.01 0.07 0.22 0.48 0.41 0.67 0.42 0.57 0.58 0.56 0.59 0.61 0.35 0.14 0.06 0.01 0.00 0.02 0.09 0.06 0.16 0.19 0.30 0.28 0.19 0.18 0.12 0.05 0.04 0.04 0.05 0.04 0.05 0.07
0.01 0.00 0.00 0.01 0.00 0.00 0.00 0.00 0.00 0.00 0.04 0.08 0.14 0.31 0.28 0.33 0.21 0.20 0.30 0.38 0.37 0.17 0.04 0.02 0.02 0.03 0.01 0.01 0.04 0.04 0.09 0.03 0.02 0.02 0.09 0.20 0.10 0.09 0.15 0.11 0.08 0.09 0.10 0.12

GFSNW_prec_precacc24_201.txt.gz
Total_Precipitation_Accumulation
0.21 0.14 0.06 0.02 0.01 0.01 0.00 0.00 0.01 0.00 0.05 0.01 0.00 0.00 0.00 0.00 0.00 0.00 0.00 0.00 0.00 0.00 0.00 0.00 0.00 0.01 0.00 0.00 0.00 0.02 0.05 0.13 0.08 0.00 0.00 0.00 0.02 0.16 0.44 0.70 0.72 0.44 0.28 0.10
0.10 0.06 0.02 0.00 0.00 0.00 0.00 0.00 0.00 0.00 0.18 0.06 0.01 0.00 0.00 0.00 0.00 0.00 0.00 0.00 0.00 0.00 0.00 0.00 0.00 0.00 0.00 0.00 0.00 0.05 0.12 0.22 0.16 0.02 0.01 0.06 0.18 0.31 0.49 0.70 0.68 0.32 0.45 0.13
0.04 0.02 0.00 0.00 0.00 0.00 0.00 0.02 0.00 0.01 0.08 0.20 0.06 0.02 0.01 0.00 0.00 0.00 0.00 0.00 0.01 0.00 0.00 0.00 0.00 0.00 0.00 0.00 0.00 0.02 0.10 0.15 0.14 0.09 0.01 0.03 0.05 0.10 0.19 0.51 0.66 0.26 0.22 0.03
0.02 0.01 0.01 0.00 0.02 0.02 0.00 0.01 0.02 0.00 0.02 0.07 0.21 0.15 0.07 0.02 0.02 0.02 0.03 0.01 0.02 0.03 0.03 0.00 0.00 0.00 0.00 0.00 0.00 0.01 0.08 0.08 0.03 0.01 0.01 0.03 0.03 0.01 0.04 0.24 0.33 0.47 0.12 0.02
0.05 0.06 0.05 0.04 0.04 0.02 0.00 0.00 0.00 0.00 0.00 0.00 0.01 0.06 0.11 0.14 0.17 0.11 0.10 0.10 0.10 0.08 0.09 0.07 0.06 0.04 0.03 0.02 0.02 0.06 0.14 0.30 0.22 0.13 0.02 0.02 0.04 0.04 0.02 0.02 0.03 0.09 0.10 0.08
0.02 0.03 0.03 0.03 0.03 0.01 0.00 0.00 0.00 0.00 0.00 0.00 0.00 0.01 0.02 0.05 0.04 0.04 0.05 0.07 0.07 0.10 0.08 0.03 0.03 0.02 0.02 0.02 0.03 0.05 0.10 0.16 0.20 0.15 0.03 0.06 0.10 0.01 0.00 0.00 0.00 0.00 0.04 0.04
0.01 0.01 0.01 0.02 0.03 0.01 0.00 0.00 0.00 0.00 0.01 0.00 0.00 0.00 0.00 0.00 0.00 0.00 0.01 0.00 0.01 0.01 0.00 0.00 0.00 0.00 0.00 0.00 0.00 0.01 0.04 0.06 0.14 0.14 0.06 0.20 0.05 0.00 0.00 0.00 0.00 0.00 0.01 0.00
0.03 0.01 0.00 0.00 0.02 0.02 0.00 0.00 0.00 0.01 0.02 0.00 0.00 0.00 0.00 0.00 0.00 0.00 0.00 0.00 0.00 0.00 0.00 0.00 0.00 0.00 0.00 0.00 0.00 0.00 0.00 0.05 0.14 0.14 0.10 0.07 0.02 0.00 0.00 0.01 0.02 0.01 0.00 0.01
0.05 0.04 0.04 0.03 0.03 0.03 0.02 0.00 0.00 0.01 0.03 0.01 0.00 0.00 0.00 0.00 0.00 0.00 0.00 0.00 0.00 0.00 0.01 0.03 0.03 0.02 0.01 0.01 0.00 0.00 0.03 0.06 0.26 0.28 0.35 0.16 0.01 0.00 0.00 0.03 0.16 0.03 0.01 0.03
0.05 0.05 0.05 0.07 0.07 0.07 0.04 0.00 0.00 0.01 0.02 0.01 0.00 0.00 0.00 0.00 0.00 0.01 0.01 0.00 0.00 0.00 0.02 0.04 0.04 0.03 0.01 0.02 0.01 0.01 0.04 0.15 0.31 0.31 0.38 0.27 0.05 0.01 0.01 0.08 0.05 0.02 0.06 0.07
0.04 0.05 0.05 0.07 0.11 0.13 0.09 0.06 0.01 0.04 0.04 0.02 0.00 0.00 0.00 0.01 0.02 0.04 0.06 0.04 0.04 0.04 0.06 0.06 0.06 0.06 0.01 0.01 0.00 0.01 0.02 0.04 0.04 0.11 0.19 0.17 0.04 0.03 0.06 0.06 0.04 0.03 0.04 0.04
0.02 0.04 0.05 0.07 0.10 0.20 0.25 0.20 0.04 0.10 0.19 0.04 0.00 0.00 0.00 0.00 0.01 0.04 0.06 0.06 0.04 0.06 0.11 0.12 0.15 0.12 0.10 0.08 0.05 0.01 0.02 0.03 0.04 0.05 0.03 0.00 0.02 0.04 0.03 0.02 0.01 0.01 0.01 0.01
0.02 0.03 0.05 0.08 0.12 0.23 0.32 0.38 0.34 0.44 0.66 0.29 0.04 0.00 0.00 0.00 0.00 0.00 0.04 0.02 0.03 0.05 0.11 0.22 0.28 0.23 0.11 0.09 0.05 0.02 0.00 0.02 0.05 0.05 0.01 0.00 0.00 0.00 0.00 0.00 0.00 0.00 0.00 0.00
0.01 0.01 0.04 0.11 0.17 0.26 0.22 0.18 0.25 0.36 0.49 0.27 0.02 0.01 0.00 0.00 0.01 0.01 0.00 0.01 0.05 0.10 0.25 0.62 0.48 0.26 0.13 0.09 0.06 0.04 0.01 0.02 0.03 0.03 0.00 0.01 0.00 0.00 0.00 0.00 0.00 0.01 0.00 0.00
0.00 0.01 0.04 0.06 0.09 0.17 0.20 0.25 0.26 0.27 0.28 0.22 0.04 0.01 0.00 0.00 0.00 0.02 0.01 0.02 0.07 0.32 0.73 0.77 0.43 0.20 0.21 0.15 0.11 0.04 0.01 0.01 0.06 0.04 0.00 0.04 0.00 0.00 0.00 0.01 0.00 0.00 0.01 0.00
0.03 0.04 0.04 0.05 0.07 0.08 0.12 0.12 0.09 0.06 0.10 0.25 0.06 0.00 0.00 0.01 0.00 0.01 0.01 0.02 0.08 0.37 0.62 0.49 0.28 0.16 0.49 0.55 0.10 0.00 0.00 0.00 0.00 0.00 0.00 0.00 0.00 0.00 0.00 0.01 0.01 0.01 0.00 0.00
0.04 0.05 0.04 0.09 0.07 0.09 0.12 0.08 0.15 0.04 0.19 0.55 0.23 0.01 0.01 0.05 0.03 0.03 0.03 0.03 0.05 0.16 0.25 0.16 0.04 0.04 0.39 0.37 0.07 0.00 0.00 0.00 0.00 0.00 0.01 0.06 0.02 0.01 0.01 0.01 0.04 0.01 0.02 0.02
0.03 0.03 0.03 0.07 0.03 0.02 0.04 0.01 0.02 0.02 0.12 0.28 0.18 0.01 0.01 0.01 0.03 0.05 0.08 0.10 0.13 0.14 0.08 0.03 0.01 0.03 0.13 0.13 0.00 0.00 0.00 0.00 0.02 0.03 0.04 0.10 0.09 0.06 0.04 0.05 0.06 0.06 0.05 0.03
0.03 0.04 0.02 0.03 0.07 0.13 0.07 0.01 0.02 0.03 0.10 0.12 0.06 0.02 0.03 0.02 0.01 0.02 0.06 0.08 0.07 0.05 0.09 0.02 0.05 0.06 0.12 0.02 0.00 0.00 0.01 0.12 0.20 0.13 0.06 0.04 0.06 0.07 0.07 0.06 0.07 0.06 0.03 0.02
0.04 0.02 0.04 0.03 0.04 0.02 0.02 0.04 0.09 0.17 0.20 0.13 0.04 0.00 0.01 0.02 0.06 0.08 0.08 0.10 0.05 0.07 0.03 0.04 0.14 0.04 0.01 0.03 0.07 0.14 0.22 0.21 0.18 0.29 0.12 0.04 0.07 0.06 0.07 0.08 0.10 0.12 0.07 0.03
0.03 0.05 0.08 0.02 0.01 0.03 0.03 0.06 0.11 0.09 0.13 0.06 0.02 0.01 0.05 0.06 0.11 0.21 0.17 0.18 0.15 0.20 0.04 0.08 0.10 0.18 0.21 0.18 0.21 0.22 0.26 0.23 0.17 0.16 0.08 0.10 0.28 0.30 0.17 0.10 0.10 0.14 0.08 0.04
0.04 0.05 0.04 0.02 0.01 0.09 0.07 0.07 0.09 0.13 0.06 0.05 0.11 0.21 0.31 0.22 0.32 0.56 0.33 0.31 0.24 0.11 0.12 0.30 0.33 0.51 0.20 0.13 0.09 0.07 0.09 0.10 0.16 0.19 0.30 0.23 0.26 0.28 0.21 0.15 0.13 0.08 0.06 0.07
0.01 0.03 0.07 0.05 0.10 0.13 0.10 0.03 0.06 0.19 0.21 0.14 0.34 0.66 0.85 0.68 0.66 0.63 0.25 0.25 0.10 0.11 0.24 0.36 0.68 0.25 0.05 0.06 0.07 0.03 0.07 0.15 0.25 0.22 0.21 0.21 0.18 0.17 0.16 0.09 0.05 0.05 0.08 0.09
0.10 0.02 0.00 0.02 0.06 0.03 0.00 0.04 0.16 0.22 0.23 0.11 0.31 0.88 0.95 0.55 0.81 0.38 0.28 0.08 0.16 0.28 0.44 0.68 0.24 0.04 0.01 0.02 0.02 0.04 0.16 0.12 0.14 0.14 0.10 0.09 0.15 0.13 0.13 0.09 0.07 0.11 0.09 0.11
0.07 0.07 0.02 0.00 0.00 0.00 0.02 0.02 0.02 0.02 0.02 0.11 0.45 0.47 0.64 0.59 0.54 0.28 0.30 0.38 0.47 0.62 0.63 0.37 0.11 0.03 0.01 0.01 0.01 0.02 0.14 0.22 0.10 0.10 0.07 0.08 0.08 0.06 0.08 0.07 0.08 0.09 0.08 0.08
0.04 0.01 0.01 0.00 0.01 0.01 0.01 0.01 0.00 0.00 0.01 0.06 0.18 0.34 0.35 0.62 0.44 0.59 0.59 0.56 0.64 0.67 0.37 0.14 0.06 0.01 0.00 0.00 0.03 0.05 0.16 0.19 0.30 0.28 0.19 0.18 0.12 0.05 0.04 0.05 0.05 0.05 0.06 0.09
0.00 0.00 0.00 0.00 0.00 0.01 0.01 0.00 0.00 0.01 0.05 0.07 0.11 0.25 0.27 0.30 0.22 0.20 0.31 0.39 0.41 0.20 0.06 0.03 0.02 0.03 0.01 0.01 0.04 0.04 0.09 0.03 0.02 0.02 0.09 0.20 0.10 0.09 0.16 0.11 0.09 0.09 0.12 0.15

GFSNW_prec_precacc24_204.txt.gz
Total_Precipitation_Accumulation
0.40 0.34 0.27 0.24 0.19 0.16 0.13 0.14 0.16 0.08 0.03 0.02 0.01 0.00 0.00 0.00 0.00 0.00 0.00 0.00 0.00 0.00 0.00 0.00 0.00 0.01 0.00 0.00 0.00 0.02 0.05 0.12 0.07 0.00 0.00 0.00 0.02 0.15 0.45 0.72 0.73 0.46 0.31 0.12
0.27 0.26 0.23 0.16 0.10 0.06 0.07 0.09 0.08 0.02 0.11 0.05 0.01 0.00 0.00 0.00 0.00 0.00 0.00 0.00 0.00 0.00 0.00 0.00 0.00 0.00 0.00 0.00 0.00 0.03 0.06 0.11 0.09 0.01 0.01 0.06 0.17 0.26 0.45 0.69 0.70 0.37 0.51 0.15
0.16 0.18 0.16 0.12 0.08 0.05 0.04 0.06 0.05 0.03 0.08 0.17 0.05 0.02 0.01 0.00 0.00 0.00 0.00 0.00 0.00 0.00 0.00 0.00 0.00 0.00 0.00 0.00 0.00 0.00 0.03 0.03 0.05 0.05 0.01 0.03 0.03 0.04 0.10 0.36 0.54 0.23 0.23 0.04
0.11 0.08 0.06 0.04 0.05 0.04 0.02 0.03 0.03 0.01 0.03 0.07 0.20 0.16 0.07 0.02 0.02 0.02 0.02 0.01 0.02 0.02 0.02 0.00 0.00 0.00 0.00 0.00 0.00 0.00 0.03 0.03 0.01 0.00 0.01 0.03 0.02 0.01 0.01 0.11 0.19 0.32 0.09 0.02
0.09 0.07 0.05 0.05 0.04 0.02 0.00 0.01 0.01 0.00 0.00 0.01 0.01 0.06 0.11 0.14 0.17 0.11 0.10 0.10 0.09 0.08 0.07 0.06 0.05 0.04 0.03 0.02 0.02 0.05 0.09 0.21 0.17 0.09 0.02 0.02 0.06 0.03 0.00 0.00 0.01 0.04 0.04 0.04
0.04 0.04 0.04 0.04 0.03 0.00 0.00 0.00 0.00 0.00 0.00 0.00 0.00 0.01 0.02 0.05 0.04 0.04 0.05 0.06 0.06 0.09 0.08 0.02 0.02 0.02 0.02 0.02 0.03 0.05 0.09 0.14 0.16 0.14 0.03 0.08 0.12 0.00 0.00 0.00 0.00 0.00 0.03 0.04
0.01 0.00 0.01 0.02 0.02 0.00 0.00 0.00 0.00 0.00 0.01 0.00 0.00 0.00 0.00 0.00 0.00 0.00 0.01 0.00 0.01 0.01 0.00 0.00 0.00 0.00 0.00 0.00 0.00 0.01 0.03 0.04 0.10 0.10 0.06 0.16 0.04 0.00 0.00 0.00 0.00 0.00 0.01 0.00
0.01 0.00 0.00 0.00 0.02 0.00 0.00 0.00 0.00 0.01 0.01 0.00 0.00 0.00 0.00 0.00 0.00 0.00 0.00 0.00 0.00 0.00 0.00 0.00 0.00 0.00 0.00 0.00 0.00 0.00 0.00 0.02 0.06 0.07 0.06 0.04 0.01 0.00 0.00 0.00 0.01 0.01 0.00 0.00
0.04 0.03 0.02 0.02 0.02 0.01 0.01 0.00 0.00 0.00 0.01 0.01 0.00 0.00 0.00 0.00 0.00 0.00 0.00 0.00 0.00 0.00 0.00 0.02 0.02 0.01 0.01 0.00 0.00 0.00 0.01 0.03 0.21 0.27 0.41 0.22 0.02 0.00 0.00 0.03 0.09 0.01 0.01 0.03
0.04 0.04 0.04 0.05 0.05 0.05 0.02 0.00 0.00 0.00 0.01 0.01 0.00 0.00 0.00 0.00 0.00 0.01 0.01 0.00 0.00 0.00 0.02 0.04 0.04 0.02 0.00 0.01 0.01 0.01 0.02 0.06 0.12 0.14 0.25 0.17 0.04 0.01 0.01 0.06 0.04 0.01 0.06 0.07
0.03 0.03 0.03 0.06 0.09 0.11 0.06 0.05 0.00 0.03 0.04 0.02 0.00 0.00 0.00 0.01 0.02 0.04 0.06 0.04 0.03 0.04 0.06 0.06 0.05 0.04 0.01 0.01 0.00 0.01 0.02 0.03 0.04 0.07 0.11 0.11 0.02 0.01 0.04 0.04 0.02 0.01 0.02 0.02
0.01 0.01 0.02 0.04 0.08 0.18 0.20 0.19 0.03 0.05 0.16 0.04 0.00 0.00 0.00 0.00 0.01 0.04 0.06 0.05 0.04 0.06 0.10 0.10 0.12 0.09 0.05 0.05 0.04 0.01 0.01 0.03 0.03 0.04 0.02 0.00 0.01 0.02 0.03 0.02 0.01 0.00 0.00 0.00
0.01 0.01 0.03 0.07 0.10 0.19 0.28 0.38 0.32 0.40 0.59 0.27 0.04 0.00 0.00 0.00 0.00 0.00 0.02 0.01 0.03 0.07 0.09 0.16 0.14 0.10 0.04 0.04 0.03 0.02 0.00 0.01 0.04 0.04 0.01 0.00 0.00 0.00 0.00 0.00 0.00 0.00 0.00 0.00
0.01 0.01 0.03 0.08 0.15 0.22 0.17 0.17 0.24 0.35 0.47 0.22 0.02 0.01 0.00 0.00 0.00 0.00 0.00 0.01 0.05 0.08 0.15 0.34 0.26 0.12 0.07 0.05 0.04 0.04 0.01 0.02 0.03 0.03 0.00 0.01 0.00 0.00 0.00 0.00 0.00 0.01 0.00 0.01
0.00 0.01 0.03 0.03 0.05 0.12 0.15 0.23 0.25 0.27 0.27 0.20 0.03 0.01 0.00 0.00 0.00 0.01 0.04 0.03 0.06 0.18 0.42 0.42 0.20 0.10 0.16 0.14 0.11 0.04 0.01 0.01 0.06 0.04 0.00 0.04 0.00 0.00 0.00 0.00 0.00 0.00 0.01 0.00
0.02 0.04 0.04 0.03 0.03 0.05 0.12 0.12 0.09 0.05 0.07 0.19 0.03 0.00 0.00 0.00 0.00 0.00 0.01 0.03 0.08 0.31 0.50 0.37 0.26 0.15 0.46 0.55 0.10 0.00 0.00 0.00 0.00 0.00 0.00 0.01 0.00 0.00 0.00 0.00 0.00 0.00 0.00 0.00
0.04 0.04 0.04 0.08 0.04 0.09 0.12 0.07 0.14 0.03 0.12 0.35 0.18 0.01 0.01 0.04 0.03 0.03 0.02 0.02 0.04 0.13 0.22 0.15 0.04 0.04 0.37 0.37 0.07 0.00 0.00 0.00 0.00 0.01 0.08 0.13 0.03 0.01 0.00 0.00 0.01 0.01 0.03 0.02
0.03 0.03 0.03 0.06 0.02 0.02 0.04 0.01 0.02 0.02 0.07 0.05 0.06 0.01 0.01 0.01 0.03 0.05 0.06 0.09 0.08 0.11 0.07 0.03 0.01 0.03 0.12 0.13 0.00 0.00 0.00 0.00 0.03 0.05 0.07 0.12 0.10 0.06 0.03 0.04 0.06 0.08 0.06 0.03
0.03 0.03 0.01 0.03 0.07 0.13 0.07 0.00 0.01 0.02 0.08 0.11 0.06 0.02 0.03 0.02 0.01 0.02 0.05 0.07 0.06 0.04 0.08 0.02 0.05 0.06 0.11 0.01 0.00 0.01 0.02 0.14 0.21 0.13 0.06 0.03 0.05 0.06 0.05 0.06 0.07 0.09 0.04 0.03
0.03 0.02 0.05 0.03 0.04 0.01 0.01 0.03 0.07 0.15 0.18 0.10 0.03 0.00 0.01 0.02 0.06 0.08 0.07 0.10 0.06 0.07 0.03 0.04 0.16 0.05 0.01 0.03 0.07 0.15 0.22 0.21 0.18 0.29 0.12 0.04 0.08 0.06 0.07 0.09 0.13 0.15 0.10 0.06
0.03 0.05 0.08 0.02 0.00 0.02 0.03 0.05 0.09 0.09 0.12 0.05 0.01 0.01 0.05 0.06 0.13 0.22 0.16 0.15 0.14 0.20 0.04 0.10 0.12 0.27 0.23 0.18 0.21 0.21 0.25 0.23 0.17 0.16 0.08 0.10 0.29 0.33 0.21 0.13 0.11 0.15 0.10 0.07
0.04 0.05 0.03 0.02 0.01 0.04 0.05 0.06 0.08 0.13 0.06 0.05 0.10 0.19 0.29 0.23 0.34 0.60 0.35 0.26 0.19 0.10 0.12 0.32 0.37 0.53 0.20 0.12 0.08 0.06 0.08 0.09 0.16 0.19 0.30 0.23 0.26 0.29 0.24 0.19 0.17 0.11 0.10 0.09
0.01 0.03 0.07 0.05 0.05 0.07 0.08 0.03 0.05 0.16 0.17 0.10 0.24 0.50 0.70 0.59 0.61 0.59 0.25 0.24 0.09 0.10 0.23 0.38 0.69 0.24 0.05 0.04 0.04 0.02 0.06 0.15 0.25 0.22 0.21 0.20 0.15 0.12 0.17 0.12 0.07 0.07 0.10 0.12
0.10 0.02 0.00 0.00 0.02 0.02 0.00 0.03 0.14 0.16 0.12 0.04 0.21 0.73 0.82 0.47 0.71 0.28 0.25 0.07 0.14 0.25 0.43 0.72 0.24 0.04 0.01 0.01 0.01 0.02 0.07 0.12 0.14 0.14 0.09 0.09 0.13 0.11 0.12 0.09 0.09 0.13 0.11 0.13
0.09 0.03 0.01 0.00 0.00 0.00 0.01 0.01 0.01 0.01 0.01 0.08 0.42 0.42 0.53 0.46 0.48 0.25 0.30 0.35 0.45 0.64 0.66 0.41 0.12 0.03 0.01 0.01 0.01 0.01 0.06 0.18 0.10 0.10 0.07 0.08 0.08 0.06 0.08 0.07 0.08 0.10 0.09 0.10
0.05 0.01 0.00 0.00 0.00 0.01 0.01 0.00 0.00 0.00 0.01 0.06 0.17 0.26 0.27 0.53 0.42 0.58 0.60 0.54 0.62 0.62 0.42 0.19 0.07 0.01 0.00 0.00 0.01 0.02 0.10 0.17 0.30 0.28 0.19 0.18 0.12 0.05 0.04 0.05 0.05 0.06 0.07 0.10
0.00 0.00 0.00 0.00 0.00 0.01 0.01 0.00 0.00 0.01 0.04 0.07 0.10 0.16 0.21 0.25 0.21 0.20 0.31 0.38 0.38 0.21 0.06 0.04 0.04 0.03 0.01 0.00 0.01 0.02 0.08 0.03 0.02 0.02 0.09 0.20 0.10 0.09 0.16 0.11 0.09 0.09 0.12 0.16